Printer-friendly version

IAU Minor Planet Center

Minor Planet Center

MPEC 2004-S07 : 2004 QT24

The following Minor Planet Electronic Circular may be linked-to from your own Web pages, but must not otherwise be redistributed electronically.


Read MPEC 2004-S06 Read MPEC 2004-S08


M.P.E.C. 2004-S07                                Issued 2004 Sept. 17, 15:10 UT

     The Minor Planet Electronic Circulars contain information on unusual
         minor planets and routine data on comets.  They are published
   on behalf of Commission 20 of the International Astronomical Union by the
          Minor Planet Center, Smithsonian Astrophysical Observatory,
                          Cambridge, MA 02138, U.S.A.

                  Supported in part by the Brinson Foundation
             Prepared using the Tamkin Foundation Computer Network

                              MPC@CFA.HARVARD.EDU
          URL http://cfa-www.harvard.edu/iau/mpc.html  ISSN 1523-6714

                                   2004 QT24

                           Revision to MPEC 2004-Q60

Additional Observations:
     K04Q24T 9C1993 07 15.37558 14 55 02.71 -57 42 56.6                 ES007260
     K04Q24T 9C1993 07 15.41725 14 55 04.15 -57 42 27.3                 ES007260
     K04Q24T 9C1998 08 30.68825 01 10 02.58 -54 20 31.4                 ES007260
     K04Q24T 9C1998 08 30.72992 01 09 57.11 -54 21 23.0                 ES007260

Observer details:
260 Siding Spring-DSS.  Measurer G. Forti.  1.2-m Schmidt.

Orbital elements:
2004 QT24                                                            PHA 0.002A
Epoch 2004 July 14.0 TT = JDT 2453200.5                 MPC
M 200.95126              (2000.0)            P               Q
n   0.81764574     Peri.   76.48616     -0.35852795     -0.91599898
a   1.1326418      Node    36.20999     +0.69435221     -0.39055598
e   0.2519521      Incl.   17.74108     +0.62396531     -0.09171637
P   1.21           H   18.3           G   0.15           U   3
Residuals in seconds of arc
930715 260  0.3-  1.2+    040828 413  0.1+  0.0     040830 474  0.2-  0.3+
930715 260  0.4+  1.2-    040828 413  0.2+  0.0     040830 474  0.0   0.3+
980830 260  0.7-  0.3-    040828 413  0.1+  0.0     040830 474  0.3-  0.0
980830 260  0.5+  0.5+    040828 413  0.1+  0.1-    040830 474  0.4-  0.2+
040827 E12  0.8+  0.1-    040828 413  0.1+  0.1-    040831 413  0.2+  0.0
040827 E12  0.2+  0.2-    040829 809  0.3+  0.1-    040831 413  0.1-  0.0
040827 E12  0.1+  0.2-    040829 809  0.4-  0.1-    040831 413  0.1+  0.0
040827 E12  0.1-  0.3-    040829 474  0.0   0.1+    040901 413  0.0   0.0
040827 413  0.2+  0.1-    040829 474  0.4-  0.1+    040901 413  0.0   0.0
040827 413  0.1+  0.0     040829 474  0.1-  0.3+    040914 474  0.0   0.3+
040827 413  0.1+  0.1-    040829 474  0.3-  0.1+    040914 474  0.0   0.2-
040827 413  0.1+  0.3-    040829 474  0.0   0.0     040914 474  0.1-  0.2+
040827 413  0.2+  0.0     040829 474  0.3-  0.0     040914 474  0.2-  0.3+
040827 413  0.1+  0.2-    040829 474  0.0   0.1+    040916 E14  0.2+  0.5-
040827 413  0.4+  0.0     040829 474  0.2-  0.1+    040916 E14  0.1+  0.1-
040828 413  0.2+  0.0     040830 474  0.3-  0.3+    040916 E14  0.1-  0.1-

Ephemeris:
2004 QT24                a,e,i = 1.13, 0.25, 18                  q = 0.8473
Date    TT    R. A. (2000) Decl.     Delta      r     Elong.  Phase     V
2004 09 12    22 16.19   -63 23.7    0.444    1.285   119.6    42.9    18.7
2004 09 22    21 37.43   -59 40.2    0.440    1.253   114.7    46.7    18.8
2004 10 02    21 14.92   -54 08.8    0.440    1.218   109.1    50.9    18.8
2004 10 12    21 05.76   -47 34.4    0.443    1.181   103.2    55.4    18.9
2004 10 22    21 05.70   -40 24.9    0.447    1.141    97.2    59.9    19.0
2004 11 01    21 11.24   -32 55.5    0.451    1.100    91.4    64.4    19.1
2004 11 11    21 19.98   -25 12.1    0.454    1.058    85.8    68.9    19.1
2004 11 21    21 30.39   -17 16.7    0.454    1.016    80.4    73.4    19.2
2004 12 01    21 41.16   -09 10.2    0.450    0.976    75.5    78.0    19.2
2004 12 11    21 51.20   -00 53.8    0.443    0.938    70.8    82.7    19.3
2004 12 21    21 59.49   +07 29.5    0.431    0.904    66.7    87.3    19.3
2004 12 31    22 04.67   +15 51.9    0.416    0.877    63.1    91.9    19.4
2005 01 10    22 05.26   +23 59.6    0.397    0.858    60.2    96.2    19.4
2005 01 20    21 59.55   +31 32.8    0.374    0.848    58.1    99.9    19.4
2005 01 30    21 45.79   +38 03.3    0.348    0.849    57.3   102.5    19.4
2005 02 09    21 23.30   +42 59.8    0.320    0.860    57.8   103.9    19.3
2005 02 19    20 53.04   +45 58.3    0.289    0.880    59.9   103.6    19.1
2005 03 01    20 17.63   +46 44.7    0.256    0.907    63.8   101.6    18.8
2005 03 11    19 39.47   +45 19.5    0.219    0.941    70.0    97.4    18.4
2005 03 21    18 57.01   +41 29.1    0.180    0.980    79.5    90.0    17.7
2005 03 31    18 04.35   +33 50.1    0.142    1.020    94.7    77.4    16.8
2005 04 10    16 53.33   +18 53.1    0.112    1.062   119.8    54.9    15.7
2005 04 20    15 27.15   -04 07.6    0.109    1.104   155.2    22.4    14.8
2005 04 30    14 11.32   -22 31.1    0.139    1.145   171.1     7.8    14.9
2005 05 10    13 22.93   -31 16.2    0.193    1.184   152.6    23.1    16.2
2005 05 20    12 58.80   -35 03.5    0.259    1.222   140.1    32.1    17.2
2005 05 30    12 50.57   -36 54.6    0.331    1.256   131.0    37.5    17.9
2005 06 09    12 52.43   -38 00.4    0.408    1.288   123.9    40.9    18.5
2005 06 19    13 01.08   -38 50.3    0.487    1.316   117.8    43.1    19.0
2005 06 29    13 14.46   -39 35.2    0.568    1.341   112.5    44.5    19.4
2005 07 09    13 31.40   -40 18.4    0.650    1.363   107.6    45.3    19.8
2005 07 19    13 51.26   -41 01.3    0.733    1.381   103.1    45.8    20.1
2005 07 29    14 13.51   -41 42.4    0.814    1.396    98.9    46.0    20.3
2005 08 08    14 37.89   -42 19.6    0.894    1.407    94.8    45.9    20.5
2005 08 18    15 04.19   -42 50.8    0.972    1.414    90.8    45.7    20.7
2005 08 28    15 32.16   -43 12.7    1.048    1.417    87.0    45.4    20.9
2005 09 07    16 01.64   -43 22.3    1.121    1.417    83.3    44.9    21.0
2005 09 17    16 32.39   -43 16.7    1.190    1.413    79.7    44.4    21.1
2005 09 27    17 04.10   -42 52.9    1.255    1.406    76.1    43.8    21.2
2005 10 07    17 36.47   -42 08.4    1.315    1.395    72.7    43.2    21.3
2005 10 17    18 09.18   -41 01.3    1.371    1.380    69.2    42.5    21.3
2005 10 27    18 41.86   -39 30.1    1.421    1.361    65.9    41.8    21.4
2005 11 06    19 14.26   -37 33.9    1.465    1.339    62.6    41.1    21.4

Gareth V. Williams           (C) Copyright 2004 MPC           M.P.E.C. 2004-S07

Read MPEC 2004-S06 Read MPEC 2004-S08


Our Web policy. Index to the CBAT/MPC/ICQ pages.


Valid HTML 4.01!